La Grande, OR

2:31 AM PST on December 09, 2019 (GMT -0800)
La Grande-Union County

Weather History for KLGD - August, 2019

Change the Weather History Date:

Friday, August 9, 2019

  Actual Average Record
Temperature  
Mean Temperature 73 °F -  
Max Temperature 89 °F 85 °F 108 °F (2018)
Min Temperature 57 °F 49 °F 40 °F (1970)
Cooling Degree Days 8    
Growing Degree Days 23 (Base 50)    
Moisture  
Dew Point 57 °F    
Average Humidity 66    
Maximum Humidity 90    
Minimum Humidity 28    
Precipitation  
Precipitation 0.38 in - - ()
Sea Level Pressure  
Sea Level Pressure 30.24 in    
Wind  
Wind Speed 8 mph (WNW)    
Max Wind Speed 22 mph    
Max Gust Speed -    
Visibility 10 miles    
Events Rain , Thunderstorm    
Averages and records for this station are not official NWS values.
T = Trace of Precipitation, MM = Missing Value Source: NWS Daily Summary

Daily Weather History Graph

Daily Weather History Graph

Search for Another Location

Airport or City:

Astronomy

Aug. 09, 2019 Rise Set
Actual Time 5:45 AM PDT 8:08 PM PDT
Civil Twilight 5:12 AM PDT 8:41 PM PDT
Nautical Twilight 4:31 AM PDT 9:22 PM PDT
Astronomical Twilight 3:45 AM PDT 10:08 PM PDT
Moon 3:58 PM PDT 12:44 AM PDT
Length of Visible Light 15h 28m
Length of Day
14h 22m
Waxing Gibbous, 71% of the Moon is Illuminated
Aug 9
Waxing Gibbous
Aug 15
Full
Aug 23
Last Quarter
Aug 30
New
Sep 5
First Quarter

Hourly Weather History & Observations

Time (PDT) Temp. Heat Index Dew Point Humidity Pressure Visibility Wind Dir Wind Speed Gust Speed Precip Events Conditions
12:56 AM 68.0 °F - 57.9 °F 70% 30.34 in 10.0 mi WNW 13.8 mph - 0.00 in   Overcast
1:56 AM 66.0 °F - 59.0 °F 78% 30.34 in 10.0 mi Calm Calm - N/A   Overcast
2:56 AM 63.0 °F - 60.1 °F 90% 30.33 in 10.0 mi NNW 4.6 mph - 0.01 in Rain Light Rain
3:56 AM 63.0 °F - 59.0 °F 87% 30.32 in 10.0 mi North 9.2 mph - 0.00 in   Clear
4:56 AM 64.0 °F - 57.0 °F 78% 30.34 in 10.0 mi Calm Calm - N/A   Clear
5:56 AM 62.1 °F - 57.0 °F 84% 30.35 in 10.0 mi North - - N/A   Clear
6:56 AM 62.1 °F - 57.9 °F 86% 30.35 in 10.0 mi North - - N/A   Partly Cloudy
7:56 AM 66.0 °F - 60.1 °F 81% 30.35 in 10.0 mi North - - N/A   Clear
8:56 AM 68.0 °F - 60.1 °F 76% 30.35 in 10.0 mi North 3.5 mph - N/A   Clear
9:56 AM 73.0 °F - 59.0 °F 61% 30.35 in 10.0 mi ENE 4.6 mph - N/A   Clear
10:56 AM 78.1 °F - 57.9 °F 50% 30.33 in 10.0 mi Variable 3.5 mph - N/A   Clear
11:56 AM 84.0 °F 83.3 °F 57.0 °F 40% 30.31 in 10.0 mi Variable 4.6 mph - N/A   Clear
12:56 PM 87.1 °F 85.1 °F 54.0 °F 32% 30.29 in 10.0 mi Variable 5.8 mph - N/A   Clear
1:56 PM 87.1 °F - 50.0 °F 28% 30.26 in 10.0 mi Variable 4.6 mph - N/A   Clear
2:26 PM 86.0 °F - 50.0 °F 29% 29.86 in 10.0 mi Variable 3.5 mph - N/A Thunderstorm Partly Cloudy
2:41 PM 86.0 °F 85.4 °F 59.0 °F 40% 29.85 in 10.0 mi WNW 16.1 mph - N/A   Clear
2:56 PM 82.0 °F 82.0 °F 57.9 °F 44% 30.25 in 10.0 mi WNW 13.8 mph - N/A   Clear
3:12 PM 78.8 °F - 57.2 °F 47% 29.85 in 10.0 mi WNW 17.3 mph - N/A Thunderstorm Mostly Cloudy
3:27 PM 77.0 °F - 55.4 °F 47% 29.86 in 7.0 mi West 17.3 mph - 0.01 in Rain Rain
3:34 PM 71.6 °F - 55.4 °F 57% 29.85 in 9.0 mi WNW 21.9 mph - 0.03 in Rain , Thunderstorm Thunderstorms and Rain
3:56 PM 70.0 °F - 61.0 °F 73% 30.25 in 10.0 mi NW 19.6 mph - 0.04 in Thunderstorm Mostly Cloudy
4:56 PM 62.1 °F - 55.9 °F 80% 30.30 in 10.0 mi SW 4.6 mph - 0.26 in Rain Light Rain
5:56 PM 66.0 °F - 57.9 °F 75% 30.29 in 10.0 mi West 5.8 mph - 0.00 in   Partly Cloudy
6:56 PM 66.9 °F - 55.9 °F 68% 30.31 in 10.0 mi SE 4.6 mph - N/A   Overcast
7:56 PM 64.9 °F - 55.9 °F 73% 30.38 in 10.0 mi South 8.1 mph - 0.03 in Rain Light Rain
8:56 PM 62.1 °F - 55.9 °F 80% 30.35 in 10.0 mi NNE 8.1 mph - 0.04 in   Mostly Cloudy
9:56 PM 59.0 °F - 55.9 °F 90% 30.35 in 10.0 mi SW 6.9 mph - N/A   Clear
10:56 PM 59.0 °F - 54.0 °F 83% 30.34 in 10.0 mi SW 4.6 mph - N/A   Scattered Clouds
11:56 PM 57.9 °F - 55.0 °F 90% 30.34 in 10.0 mi SW 4.6 mph - N/A   Mostly Cloudy